Content
SEND FEEDBACK

Daily
Averages
Monthly
Summary
Canada

CORNER BROOK, NEWFOUNDLAND


Home > North America > Canada > Newfoundland
Elevation: 16 feet     Latitude: 48 57N     Longitude: 057 57W

WEATHER
 
SELECT A DAY
Number of Records: 181,482;   Date Range: 1/1/95 - 9/19/14
 
SHARE

PRINT THIS DATA

[ ← Previous Day ]
WEATHER ALMANAC - JULY 18, 2013
[ Next Day → ]
[ °C ]   °F
Weather ElementAverageHighLow
Temperature63.3 °F71.6 °F (2:30 pm)55.4 °F (11:30 pm)
Dewpoint56.6 °F62.6 °F (12:30 pm)48.2 °F (5:30 pm)
Humidity80.1 %98 % (9:30 am)43 % (5:30 pm)
Barometer29.74 in29.83 in (11:30 pm)29.67 in (2:30 pm)
Wind Speed7.6 mph15 mph (5:30 pm)
Wind Gust25.3 mph (5:30 pm)
Weather ElementAverage
Visibility11.9 mi
Wind DirectionWSW (235.4 °)

Weather ElementTotal
Precipitation---
Heating Degree Days1.5 (Base 65)
Growing Degree Days13.5 (Base 50)
Averaged from 28 records on July 18, 2013
WEATHER CONDITIONS BREAKOUT
WIND DIRECTION BREAKOUT
WEATHER BY HOUR - JULY 18, 2013
[ °C ]   °F
Local TimeTemperatureDewpointHumidityBarometerVisibilityWind DirectionWind SpeedGust SpeedPrecipitationEventsConditions
1:30 AM59.0 °F55.4 °F88 %29.82 in10.0 miSSW (200°)9.2 mphRainLight Rain Showers
2:30 AM60.8 °F57.2 °F88 %29.79 in10.0 miSSW (200°)4.6 mphRainLight Rain Showers
3:30 AM59.0 °F57.0 °F90 %29.77 in7.0 miSouth (180°)3.5 mphRainHeavy Rain Showers
3:30 AM59.0 °F57.2 °F94 %29.77 in7.0 miSouth (190°)2.3 mphRainRain Showers
4:30 AM60.8 °F57.2 °F88 %29.75 in8.0 miSSW (210°)13.8 mphRainLight Rain Showers
5:30 AM60.8 °F57.2 °F88 %29.73 in8.0 miSSW (200°)9.2 mph19.6 mphRainLight Rain Showers
6:30 AM60.8 °F57.2 °F88 %29.71 in8.0 miSSW (210°)12.7 mphRainLight Rain Showers
7:30 AM62.6 °F59.0 °F88 %29.70 in10.0 miSouth (190°)6.9 mphRainLight Rain Showers
8:09 AM62.6 °F57.2 °F82 %29.70 in15.0 miSouth (190°)6.9 mphOvercast
8:30 AM62.6 °F59.0 °F88 %29.70 in15.0 miSW (220°)6.9 mphOvercast
8:55 AM62.6 °F59.0 °F88 %29.70 in3.0 miWSW (240°)11.5 mph17.3 mphRainLight Rain Showers
9:30 AM60.0 °F60.0 °F98 %29.70 in3.0 miSW (220°)8.1 mphRainHeavy Rain Showers
9:30 AM60.8 °F59.0 °F94 %29.70 in3.0 miSSW (210°)6.9 mphRainHeavy Rain Showers
10:30 AM62.6 °F60.8 °F94 %29.68 in15.0 miSSW (210°)2.3 mphRainLight Rain Showers
11:30 AM62.6 °F60.8 °F94 %29.68 in15.0 miSW (220°)9.2 mphRainLight Rain Showers
12:30 PM64.4 °F62.6 °F94 %29.68 in15.0 miWSW (240°)5.8 mphOvercast
1:30 PM66.2 °F62.6 °F88 %29.68 in15.0 miWest (280°)6.9 mphMostly Cloudy
2:30 PM71.6 °F60.8 °F69 %29.67 in15.0 miWest (280°)8.1 mphScattered Clouds
3:30 PM71.6 °F59.0 °F64 %29.69 in15.0 miWNW (290°)10.4 mph20.7 mphScattered Clouds
4:30 PM71.6 °F51.8 °F50 %29.71 in15.0 miWest (280°)10.4 mph20.7 mphScattered Clouds
5:30 PM71.6 °F48.2 °F43 %29.73 in15.0 miWNW (290°)15.0 mph25.3 mphScattered Clouds
6:30 PM69.8 °F48.2 °F46 %29.75 in15.0 miWNW (290°)9.2 mph19.6 mphScattered Clouds
7:30 PM66.2 °F50.0 °F56 %29.77 in15.0 miNW (310°)8.1 mphScattered Clouds
8:30 PM64.4 °F53.6 °F68 %29.79 in15.0 miWNW (300°)5.8 mphScattered Clouds
9:30 PM62.0 °F54.0 °F69 %29.81 in15.0 miWSW (250°)4.6 mphScattered Clouds
9:30 PM62.6 °F55.4 °F77 %29.81 in15.0 miWSW (240°)4.6 mphScattered Clouds
10:30 PM59.0 °F53.6 °F82 %29.82 in15.0 miWSW (250°)3.5 mphScattered Clouds
11:30 PM55.4 °F51.8 °F88 %29.83 in15.0 miSSW (200°)5.8 mphPartly Cloudy
Hourly data recorded from CYDF, located miles away from Corner Brook, Newfoundland







STORIES FROM OUR PARTNERS